Location: Unspecified
(0.0000°N, 0.0000°E)
Time: 15:18:31
(UTC+01:00)

NATO 3D Rocket - Visible Passes

Search period start: 19 December 2014 00:00
Search period end: 29 December 2014 00:00
Orbit: 670 x 2297 km, 21.5° (Epoch: 14 December)

Date Brightness Start Highest point End Pass type
(mag) Time Alt. Az. Time Alt. Az. Time Alt. Az.
19 Dec 7.0 00:02:05 10° SW 00:06:40 21° SSW 00:06:40 21° SSW visible
19 Dec 6.6 02:21:34 39° SE 02:21:34 39° SE 02:32:01 10° E visible
19 Dec 5.8 04:17:14 25° SW 04:26:54 70° SSE 04:38:48 10° ENE visible
19 Dec 5.5 06:19:55 10° WSW 06:33:07 63° NNW 06:42:48 10° NE visible
19 Dec 6.5 20:59:19 10° SW 21:05:26 23° S 21:13:21 10° SE visible
19 Dec 6.8 23:04:31 10° SW 23:12:31 24° S 23:12:48 24° S visible
20 Dec 7.3 01:29:24 18° ESE 01:29:24 18° ESE 01:32:36 10° ESE visible
20 Dec 6.0 03:25:04 53° SSW 03:27:53 59° SSE 03:40:41 10° E visible
20 Dec 5.5 05:20:43 11° WSW 05:34:39 78° NNW 05:45:43 10° ENE visible
20 Dec 6.3 20:02:09 10° WSW 20:07:27 23° S 20:14:20 10° SE visible
20 Dec 6.8 22:07:13 10° SW 22:13:51 21° S 22:18:50 16° SE visible
21 Dec 7.1 00:11:37 10° SW 00:14:20 18° SSW 00:14:20 18° SSW visible
21 Dec 6.5 02:32:50 42° ESE 02:32:50 42° ESE 02:42:00 10° E visible
21 Dec 5.6 04:28:29 37° WSW 04:35:52 88° SSE 04:48:11 10° ENE visible
21 Dec 5.7 06:29:22 10° W 06:42:09 49° NNW 06:51:52 10° NE visible
21 Dec 6.7 21:10:06 10° SW 21:15:30 19° S 21:22:11 10° SE visible
21 Dec 6.8 23:14:22 10° SW 23:20:19 24° S 23:20:19 24° S visible
22 Dec 7.4 01:40:31 16° E 01:40:31 16° E 01:42:43 10° E visible
22 Dec 5.7 03:36:10 74° S 03:36:53 76° SSE 03:50:10 10° ENE visible
22 Dec 5.7 05:31:48 16° W 05:43:36 61° NNW 05:54:48 10° NE visible
22 Dec 6.5 20:13:05 10° SW 20:17:28 17° S 20:22:49 10° SE visible
22 Dec 6.7 22:17:24 10° SW 22:23:52 21° S 22:26:16 19° SSE visible
23 Dec 7.3 00:20:49 10° SW 00:21:46 13° SW 00:21:46 13° SW visible
23 Dec 6.5 02:43:44 41° E 02:43:44 41° E 02:51:38 10° ENE visible
23 Dec 5.6 04:39:22 46° W 04:44:46 73° NNW 04:57:18 10° ENE visible
23 Dec 6.7 21:20:41 10° SSW 21:25:35 17° S 21:31:31 10° SE visible
23 Dec 6.8 23:23:48 10° SW 23:27:43 22° SSW 23:27:43 22° SSW visible
24 Dec 7.5 01:51:10 14° E 01:51:10 14° E 01:52:32 10° E visible
24 Dec 5.6 03:46:47 81° NE 03:46:47 81° NE 03:59:21 10° ENE visible
24 Dec 5.9 05:42:24 19° W 05:52:38 47° NNW 06:03:45 10° NE visible
24 Dec 6.6 20:24:07 10° SSW 20:27:34 14° S 20:31:34 10° SSE visible
24 Dec 6.6 22:27:06 10° SSW 22:33:40 22° SSE 22:33:40 22° SSE visible
25 Dec 6.6 02:54:05 37° ENE 02:54:05 37° ENE 03:00:55 10° ENE visible
25 Dec 5.8 04:49:41 46° WNW 04:53:43 58° NNW 05:06:14 10° NE visible
25 Dec 6.5 19:27:35 10° SSW 19:29:48 12° S 19:32:14 10° SSE visible
25 Dec 6.6 21:30:43 10° SSW 21:35:35 17° SSE 21:39:38 13° SE visible
25 Dec 6.9 23:32:57 10° SW 23:35:08 18° SSW 23:35:08 18° SSW visible
26 Dec 7.5 02:01:15 12° ENE 02:01:15 12° ENE 02:01:58 10° ENE visible
26 Dec 5.8 03:56:51 62° NNE 03:56:51 62° NNE 04:08:17 10° ENE visible
26 Dec 6.2 05:52:26 18° WNW 06:01:51 38° NNW 06:12:43 10° NE visible
26 Dec 6.6 20:34:44 10° SSW 20:37:39 13° S 20:40:57 10° SE visible
26 Dec 6.4 22:36:24 10° SSW 22:41:08 24° S 22:41:08 24° S visible
27 Dec 6.7 03:03:53 32° ENE 03:03:53 32° ENE 03:09:54 10° ENE visible
27 Dec 6.0 04:59:28 41° NW 05:02:50 46° NNW 05:15:05 10° NE visible
27 Dec 6.4 21:40:12 10° SSW 21:45:25 19° SSE 21:47:10 18° SSE visible
27 Dec 7.0 23:41:59 10° SW 23:42:40 13° SW 23:42:40 13° SW visible
28 Dec 7.6 02:10:49 11° ENE 02:10:49 11° ENE 02:11:04 10° ENE visible
28 Dec 6.0 04:06:23 49° N 04:06:23 49° N 04:17:04 10° NE visible
28 Dec 6.4 06:01:58 16° WNW 06:11:20 32° NNW 06:21:48 10° NE visible
28 Dec 6.5 20:44:28 10° SSW 20:47:38 13° SSE 20:51:15 10° SE visible
28 Dec 6.4 22:45:29 10° SW 22:48:43 23° SSW 22:48:43 23° SSW visible
